East Taunton, MA

2:08 AM EST on February 14, 2016 (GMT -0500)
Taunton Municipal

Weather History for KTAN - November, 2012

Change the Weather History Date:

Tuesday, November 6, 2012

  Actual Average Record
Temperature  
Mean Temperature 32 °F -  
Max Temperature 44 °F 53 °F 72 °F (1959)
Min Temperature 19 °F 35 °F 19 °F (2011)
Degree Days  
Heating Degree Days 34    
Moisture  
Dew Point 18 °F    
Average Humidity 67    
Maximum Humidity 89    
Minimum Humidity 30    
Precipitation  
Precipitation 0.00 in - - ()
Sea Level Pressure  
Sea Level Pressure 30.19 in    
Wind  
Wind Speed 1 mph (North)    
Max Wind Speed 6 mph    
Max Gust Speed -    
Visibility 10 miles    
Events      
Averages and records for this station are not official NWS values.
T = Trace of Precipitation, MM = Missing Value Source: NWS Daily Summary

Daily Weather History Graph

Daily Weather History Graph

Search for Another Location

Airport or City:

Trip Planner

Search our weather history database for the weather conditions in past years. The results will help you decide how hot, cold, wet, or windy it might be!

Date:

Astronomy

Nov. 06, 2012 Rise Set
Actual Time 6:23 AM EST 4:31 PM EST
Civil Twilight 5:53 AM EST 5:01 PM EST
Nautical Twilight 5:20 AM EST 5:34 PM EST
Astronomical Twilight 4:47 AM EST 6:06 PM EST
Moon 11:08 PM EST (11/6) 12:12 PM EST (11/6)
Length of Visible Light 11h 07m
Length of Day
10h 08m
Waning Gibbous, 53% of the Moon is Illuminated
Nov 6
Waning Gibbous
Nov 6
Last Quarter
Nov 13
New
Nov 20
First Quarter
Nov 28
Full

Hourly Weather History & Observations

Time (EST) Temp. Windchill Dew Point Humidity Pressure Visibility Wind Dir Wind Speed Gust Speed Precip Events Conditions
12:52 AM 23.0 °F - 19.0 °F 85% 30.14 in 10.0 mi Calm Calm - N/A   Clear
1:52 AM 21.9 °F - 18.0 °F 85% 30.16 in 10.0 mi Calm Calm - N/A   Clear
2:52 AM 21.0 °F - 18.0 °F 88% 30.17 in 10.0 mi Calm Calm - N/A   Clear
3:52 AM 19.9 °F - 16.0 °F 85% 30.17 in 10.0 mi Calm Calm - N/A   Clear
4:52 AM 19.9 °F - 16.0 °F 85% 30.17 in 10.0 mi Calm Calm - N/A   Clear
5:52 AM 19.0 °F - 16.0 °F 88% 30.18 in 10.0 mi Calm Calm - N/A   Clear
6:52 AM 19.9 °F - 17.1 °F 89% 30.19 in 10.0 mi Calm Calm - N/A   Clear
7:52 AM 28.9 °F - 23.0 °F 78% 30.23 in 10.0 mi Calm Calm - N/A   Clear
8:52 AM 36.0 °F 32.1 °F 21.0 °F 55% 30.23 in 10.0 mi NW 4.6 mph - N/A   Clear
9:52 AM 37.9 °F 34.4 °F 17.1 °F 43% 30.24 in 10.0 mi North 4.6 mph - N/A   Clear
10:52 AM 39.0 °F - 15.1 °F 38% 30.22 in 10.0 mi North - - N/A   Clear
11:52 AM 41.0 °F 38.0 °F 15.1 °F 35% 30.22 in 10.0 mi NW 4.6 mph - N/A   Clear
12:52 PM 42.1 °F 38.4 °F 15.1 °F 34% 30.20 in 10.0 mi Variable 5.8 mph - N/A   Clear
1:52 PM 44.1 °F - 14.0 °F 30% 30.19 in 10.0 mi Calm Calm - N/A   Clear
2:52 PM 43.0 °F - 12.9 °F 30% 30.18 in 10.0 mi Calm Calm - 0.00 in   Clear
3:52 PM 42.1 °F - 12.9 °F 31% 30.18 in 10.0 mi Calm Calm - N/A   Clear
4:52 PM 37.0 °F 34.5 °F 18.0 °F 46% 30.19 in 10.0 mi East 3.5 mph - N/A   Clear
5:52 PM 27.0 °F - 21.0 °F 78% 30.20 in 10.0 mi Calm Calm - N/A   Clear
6:52 PM 28.0 °F - 21.0 °F 75% 30.21 in 10.0 mi Calm Calm - N/A   Clear
7:52 PM 24.1 °F - 19.9 °F 84% 30.20 in 10.0 mi Calm Calm - N/A   Clear
8:52 PM 24.1 °F - 19.9 °F 84% 30.20 in 10.0 mi Calm Calm - N/A   Clear
9:52 PM 23.0 °F - 19.0 °F 85% 30.18 in 10.0 mi Calm Calm - N/A   Clear
10:52 PM 21.9 °F - 18.0 °F 85% 30.17 in 10.0 mi Calm Calm - N/A   Clear
11:52 PM 23.0 °F - 19.9 °F 88% 30.15 in 10.0 mi Calm Calm - N/A   Partly Cloudy